THY8DH LTFM-LTAU

Flight info

Callsign THY8DH
Flight time 1h 1m
Altitude 37000
Route VICEN1E/36 VICEN UT57 VEVUD UT341 BAG UL614 MARTI UW76 SARIZ
Aircraft A321/M-SDE3FGHIRWY/LB1

Departure

Time 2026-04-25 20:51
Airport İstanbul Airport (LTFM)

Arrival

Time 2026-04-25 21:53
Airport Kayseri Erkilet International Airport (LTAU)
Time Latitude Longitude Altitude Speed Heading
2026-04-25 20:34 41.26783 28.74913 334 ft 0 kts 181°
2026-04-25 20:40 41.26812 28.74913 334 ft 4 kts 178°
2026-04-25 20:40 41.26838 28.74911 334 ft 3 kts 178°
2026-04-25 20:40 41.26860 28.74909 334 ft 4 kts 162°
2026-04-25 20:40 41.26882 28.74891 330 ft 4 kts 122°
2026-04-25 20:41 41.26889 28.74861 334 ft 3 kts 89°
2026-04-25 20:41 41.26889 28.74839 334 ft 0 kts 89°
2026-04-25 20:44 41.26889 28.74841 330 ft 1 kts 89°
2026-04-25 20:44 41.26889 28.74871 332 ft 5 kts 89°
2026-04-25 20:45 41.26890 28.74926 334 ft 7 kts 89°
2026-04-25 20:45 41.26891 28.75004 334 ft 10 kts 89°
2026-04-25 20:45 41.26892 28.75078 333 ft 8 kts 90°
2026-04-25 20:45 41.26892 28.75168 331 ft 11 kts 89°
2026-04-25 20:46 41.26894 28.75280 333 ft 11 kts 89°
2026-04-25 20:46 41.26876 28.75363 334 ft 10 kts 140°
2026-04-25 20:46 41.26826 28.75377 331 ft 12 kts 177°
2026-04-25 20:46 41.26734 28.75379 334 ft 14 kts 179°
2026-04-25 20:47 41.26626 28.75381 331 ft 16 kts 179°
2026-04-25 20:47 41.26507 28.75385 331 ft 18 kts 179°
2026-04-25 20:47 41.26420 28.75387 330 ft 13 kts 179°
2026-04-25 20:47 41.26331 28.75388 332 ft 13 kts 179°
2026-04-25 20:48 41.26261 28.75403 331 ft 8 kts 144°
2026-04-25 20:48 41.26248 28.75469 332 ft 7 kts 89°
2026-04-25 20:48 41.26248 28.75514 334 ft 1 kts 89°
2026-04-25 20:48 41.26248 28.75521 334 ft 0 kts 89°
2026-04-25 20:49 41.26249 28.75543 334 ft 4 kts 89°
2026-04-25 20:50 41.26249 28.75596 332 ft 7 kts 89°
2026-04-25 20:50 41.26269 28.75656 332 ft 8 kts 39°
2026-04-25 20:50 41.26329 28.75666 331 ft 10 kts 359°
2026-04-25 20:50 41.26449 28.75664 334 ft 42 kts 359°
2026-04-25 20:51 41.27022 28.75652 332 ft 120 kts 359°
2026-04-25 20:51 41.28073 28.75629 360 ft 178 kts 359°
2026-04-25 20:51 41.29347 28.75610 981 ft 182 kts
2026-04-25 20:51 41.30536 28.76077 1783 ft 181 kts 38°
2026-04-25 20:52 41.31549 28.77142 2253 ft 195 kts 37°
2026-04-25 20:52 41.32333 28.77852 2486 ft 209 kts 34°
2026-04-25 20:52 41.34105 28.79311 2894 ft 243 kts 32°
2026-04-25 20:52 41.35613 28.80485 3506 ft 257 kts 31°
2026-04-25 20:53 41.37158 28.81738 4298 ft 263 kts 39°
2026-04-25 20:53 41.38216 28.83708 5048 ft 268 kts 72°
2026-04-25 20:53 41.38394 28.86182 5881 ft 271 kts 91°
2026-04-25 20:53 41.38382 28.88711 6702 ft 275 kts 90°
2026-04-25 20:54 41.38139 28.91240 7472 ft 280 kts 110°
2026-04-25 20:54 41.37058 28.93401 8213 ft 286 kts 139°
2026-04-25 20:54 41.35300 28.94624 8944 ft 291 kts 168°
2026-04-25 20:54 41.33277 28.94810 9705 ft 293 kts 180°
2026-04-25 20:55 41.31216 28.94831 10375 ft 303 kts 181°
2026-04-25 20:55 41.29030 28.94846 10611 ft 326 kts 181°
2026-04-25 20:55 41.26682 28.94865 10807 ft 349 kts 180°
2026-04-25 20:55 41.24199 28.94848 11225 ft 362 kts 182°
2026-04-25 20:56 41.21700 28.94690 11883 ft 367 kts 185°
2026-04-25 20:56 41.19111 28.94435 12605 ft 370 kts 186°
2026-04-25 20:56 41.16528 28.94144 13299 ft 374 kts 186°
2026-04-25 20:56 41.13958 28.93854 13976 ft 378 kts 186°
2026-04-25 20:57 41.11317 28.93574 14655 ft 382 kts 185°
2026-04-25 20:57 41.08652 28.93308 15316 ft 386 kts 185°
2026-04-25 20:57 41.05948 28.93231 15942 ft 391 kts 176°
2026-04-25 20:57 41.03258 28.93889 16560 ft 397 kts 163°
2026-04-25 20:58 41.00700 28.95301 17179 ft 401 kts 151°
2026-04-25 20:58 40.98398 28.97410 17790 ft 406 kts 139°
2026-04-25 20:58 40.96354 29.00012 18388 ft 409 kts 135°
2026-04-25 20:58 40.94320 29.02664 19000 ft 412 kts 135°
2026-04-25 20:59 40.92270 29.05333 19580 ft 415 kts 135°
2026-04-25 20:59 40.90201 29.08023 20142 ft 419 kts 135°
2026-04-25 20:59 40.88117 29.10726 20678 ft 422 kts 135°
2026-04-25 20:59 40.86150 29.13610 21173 ft 425 kts 127°
2026-04-25 21:00 40.84561 29.16910 21671 ft 427 kts 117°
2026-04-25 21:00 40.83754 29.19286 21990 ft 429 kts 110°
2026-04-25 21:00 40.81901 29.28213 23076 ft 435 kts 104°
2026-04-25 21:01 40.81133 29.32092 23533 ft 438 kts 104°
2026-04-25 21:01 40.80358 29.35987 23977 ft 440 kts 104°
2026-04-25 21:01 40.79576 29.39907 24413 ft 443 kts 104°
2026-04-25 21:01 40.78792 29.43845 24841 ft 445 kts 104°
2026-04-25 21:02 40.78000 29.47809 25256 ft 448 kts 104°
2026-04-25 21:02 40.77213 29.51734 25664 ft 450 kts 104°
2026-04-25 21:02 40.76409 29.55735 26067 ft 453 kts 104°
2026-04-25 21:02 40.75599 29.59754 26448 ft 455 kts 104°
2026-04-25 21:03 40.74781 29.63799 26821 ft 457 kts 104°
2026-04-25 21:03 40.73969 29.67861 27188 ft 459 kts 103°
2026-04-25 21:03 40.73455 29.72015 27551 ft 461 kts 94°
2026-04-25 21:03 40.73345 29.76241 27916 ft 462 kts 90°
2026-04-25 21:04 40.73282 29.80490 28283 ft 464 kts 91°
2026-04-25 21:04 40.73209 29.84755 28630 ft 466 kts 91°
2026-04-25 21:04 40.73131 29.89023 29091 ft 465 kts 91°
2026-04-25 21:04 40.73047 29.93278 29561 ft 464 kts 91°
2026-04-25 21:05 40.72957 29.97519 30022 ft 462 kts 91°
2026-04-25 21:05 40.72865 30.01752 30478 ft 461 kts 91°
2026-04-25 21:05 40.72590 30.05954 30907 ft 461 kts 99°
2026-04-25 21:05 40.71853 30.10064 31304 ft 461 kts 108°
2026-04-25 21:06 40.70804 30.14058 31683 ft 461 kts 109°
2026-04-25 21:06 40.69748 30.18049 32084 ft 461 kts 109°
2026-04-25 21:06 40.68693 30.22037 32500 ft 460 kts 109°
2026-04-25 21:06 40.67997 30.24669 32763 ft 460 kts 109°
2026-04-25 21:07 40.66346 30.29853 33278 ft 459 kts 118°
2026-04-25 21:07 40.64665 30.33352 33634 ft 458 kts 127°
2026-04-25 21:07 40.62718 30.36673 33990 ft 458 kts 128°
2026-04-25 21:07 40.60766 30.39983 34357 ft 457 kts 128°
2026-04-25 21:08 40.58819 30.43282 34710 ft 457 kts 128°
2026-04-25 21:08 40.56874 30.46585 35054 ft 456 kts 128°
2026-04-25 21:08 40.55013 30.49967 35372 ft 457 kts 122°
2026-04-25 21:08 40.53539 30.53659 35683 ft 457 kts 112°
2026-04-25 21:09 40.51793 30.61675 36277 ft 457 kts 103°
2026-04-25 21:09 40.51077 30.65741 36565 ft 457 kts 103°
2026-04-25 21:09 40.50352 30.69812 36834 ft 458 kts 103°
2026-04-25 21:10 40.49616 30.73884 37018 ft 459 kts 104°
2026-04-25 21:10 40.48789 30.77942 37064 ft 460 kts 107°
2026-04-25 21:10 40.46874 30.85952 37063 ft 459 kts 109°
2026-04-25 21:11 40.44867 30.93902 37063 ft 459 kts 108°
2026-04-25 21:11 40.42923 31.01870 37064 ft 458 kts 108°
2026-04-25 21:12 40.41048 31.09794 37064 ft 458 kts 108°
2026-04-25 21:12 40.39466 31.16476 37070 ft 458 kts 108°
2026-04-25 21:13 40.37510 31.25830 37077 ft 458 kts 102°
2026-04-25 21:13 40.36187 31.34008 37082 ft 458 kts 103°
2026-04-25 21:14 40.34854 31.42175 37082 ft 458 kts 103°
2026-04-25 21:14 40.33510 31.50335 37080 ft 458 kts 103°
2026-04-25 21:15 40.32172 31.58498 37079 ft 458 kts 103°
2026-04-25 21:15 40.30830 31.66660 37077 ft 459 kts 103°
2026-04-25 21:16 40.29475 31.74822 37076 ft 459 kts 103°
2026-04-25 21:16 40.28112 31.82984 37075 ft 459 kts 103°
2026-04-25 21:17 40.26743 31.91153 37078 ft 459 kts 104°
2026-04-25 21:17 40.25166 31.99251 37081 ft 459 kts 107°
2026-04-25 21:18 40.23363 32.07202 37083 ft 459 kts 108°
2026-04-25 21:18 40.21539 32.15208 37083 ft 459 kts 108°
2026-04-25 21:19 40.19774 32.23240 37085 ft 460 kts 107°
2026-04-25 21:19 40.18029 32.31282 37101 ft 460 kts 107°
2026-04-25 21:20 40.16571 32.37968 37086 ft 460 kts 108°
2026-04-25 21:20 40.14499 32.47355 37093 ft 460 kts 108°
2026-04-25 21:21 40.12711 32.55379 37093 ft 460 kts 108°
2026-04-25 21:21 40.10929 32.63401 37101 ft 460 kts 108°
2026-04-25 21:22 40.09146 32.71418 37100 ft 460 kts 108°
2026-04-25 21:22 40.07360 32.79373 37105 ft 460 kts 108°
2026-04-25 21:23 40.05344 32.87276 37098 ft 458 kts 112°
2026-04-25 21:23 40.03001 32.95012 37095 ft 458 kts 114°
2026-04-25 21:24 40.00615 33.02714 37097 ft 458 kts 114°
2026-04-25 21:24 39.98298 33.10462 37104 ft 458 kts 113°
2026-04-25 21:25 39.96023 33.18215 37101 ft 458 kts 113°
2026-04-25 21:25 39.93738 33.25963 37107 ft 458 kts 114°
2026-04-25 21:26 39.91437 33.33691 37096 ft 457 kts 114°
2026-04-25 21:26 39.89128 33.41412 37105 ft 457 kts 114°
2026-04-25 21:27 39.86813 33.49128 37104 ft 458 kts 114°
2026-04-25 21:27 39.84497 33.56836 37101 ft 457 kts 114°
2026-04-25 21:28 39.82481 33.64689 37093 ft 459 kts 107°
2026-04-25 21:28 39.80864 33.72727 37096 ft 459 kts 107°
2026-04-25 21:29 39.79240 33.80761 37102 ft 460 kts 107°
2026-04-25 21:29 39.77573 33.88786 37101 ft 459 kts 111°
2026-04-25 21:30 39.75414 33.96511 37098 ft 458 kts 113°
2026-04-25 21:30 39.73569 34.03009 37093 ft 458 kts 113°
2026-04-25 21:31 39.71011 34.12029 37096 ft 458 kts 113°
2026-04-25 21:31 39.68804 34.19781 37091 ft 458 kts 113°
2026-04-25 21:32 39.66586 34.27527 37098 ft 458 kts 113°
2026-04-25 21:32 39.65475 34.31404 36577 ft 461 kts 113°
2026-04-25 21:32 39.64357 34.35295 35599 ft 458 kts 113°
2026-04-25 21:33 39.63237 34.39188 34406 ft 465 kts 113°
2026-04-25 21:33 39.62116 34.43092 34032 ft 458 kts 113°
2026-04-25 21:33 39.61006 34.46954 33516 ft 456 kts 113°
2026-04-25 21:33 39.59900 34.50796 33008 ft 453 kts 113°
2026-04-25 21:34 39.58800 34.54612 32502 ft 450 kts 114°
2026-04-25 21:34 39.57708 34.58397 31996 ft 447 kts 114°
2026-04-25 21:34 39.56621 34.62147 31492 ft 443 kts 114°
2026-04-25 21:34 39.55538 34.65874 30987 ft 440 kts 114°
2026-04-25 21:35 39.54480 34.69517 30492 ft 436 kts 114°
2026-04-25 21:35 39.53415 34.73176 29997 ft 432 kts 114°
2026-04-25 21:35 39.52359 34.76806 29501 ft 429 kts 114°
2026-04-25 21:35 39.51313 34.80402 29016 ft 425 kts 114°
2026-04-25 21:36 39.50271 34.83968 28531 ft 421 kts 114°
2026-04-25 21:36 39.49237 34.87497 28058 ft 417 kts 114°
2026-04-25 21:36 39.48214 34.90991 27597 ft 414 kts 114°
2026-04-25 21:36 39.47197 34.94457 27135 ft 410 kts 114°
2026-04-25 21:37 39.46186 34.97893 26676 ft 407 kts 114°
2026-04-25 21:37 39.45847 34.99047 26542 ft 406 kts 114°
2026-04-25 21:37 39.44184 35.04687 25828 ft 401 kts 114°
2026-04-25 21:37 39.43191 35.08042 25407 ft 398 kts 114°
2026-04-25 21:38 39.42201 35.11374 24995 ft 395 kts 115°
2026-04-25 21:38 39.40952 35.14491 24580 ft 387 kts 127°
2026-04-25 21:38 39.39295 35.17183 24191 ft 379 kts 137°
2026-04-25 21:38 39.37313 35.19381 23782 ft 372 kts 148°
2026-04-25 21:39 39.35093 35.21039 23351 ft 366 kts 159°
2026-04-25 21:39 39.32761 35.22319 22899 ft 363 kts 160°
2026-04-25 21:39 39.30447 35.23579 22503 ft 359 kts 160°
2026-04-25 21:39 39.28161 35.24828 22094 ft 355 kts 160°
2026-04-25 21:40 39.25893 35.26067 21677 ft 353 kts 160°
2026-04-25 21:40 39.23638 35.27295 21309 ft 360 kts 160°
2026-04-25 21:40 39.21327 35.28548 20934 ft 360 kts 160°
2026-04-25 21:40 39.19018 35.29797 20558 ft 359 kts 160°
2026-04-25 21:41 39.16724 35.31038 20185 ft 357 kts 160°
2026-04-25 21:41 39.14442 35.32273 19807 ft 355 kts 160°
2026-04-25 21:41 39.12171 35.33503 19431 ft 353 kts 159°
2026-04-25 21:41 39.09913 35.34727 19043 ft 351 kts 160°
2026-04-25 21:42 39.08424 35.35535 18807 ft 350 kts 159°
2026-04-25 21:42 39.06319 35.37098 18430 ft 351 kts 145°
2026-04-25 21:42 39.04556 35.39266 18053 ft 353 kts 131°
2026-04-25 21:42 39.03241 35.41932 17677 ft 355 kts 117°
2026-04-25 21:43 39.02417 35.44924 17303 ft 355 kts 109°
2026-04-25 21:43 39.01704 35.47956 16925 ft 354 kts 109°
2026-04-25 21:43 39.00980 35.50969 16551 ft 352 kts 109°
2026-04-25 21:43 39.00254 35.53966 16171 ft 350 kts 110°
2026-04-25 21:44 38.99530 35.56942 15800 ft 348 kts 110°
2026-04-25 21:44 38.98810 35.59903 15423 ft 346 kts 110°
2026-04-25 21:44 38.97381 35.65761 14539 ft 337 kts 110°
2026-04-25 21:45 38.96689 35.68590 14061 ft 327 kts 110°
2026-04-25 21:45 38.96241 35.70421 13747 ft 322 kts 110°
2026-04-25 21:45 38.95360 35.74034 13114 ft 314 kts 110°
2026-04-25 21:45 38.94704 35.76716 12634 ft 313 kts 110°
2026-04-25 21:46 38.94053 35.79381 12162 ft 313 kts 110°
2026-04-25 21:46 38.93351 35.81982 11680 ft 309 kts 118°
2026-04-25 21:46 38.92206 35.84238 11209 ft 297 kts 135°
2026-04-25 21:46 38.90661 35.85937 10734 ft 290 kts 150°
2026-04-25 21:47 38.88856 35.87002 10260 ft 284 kts 165°
2026-04-25 21:47 38.86906 35.87290 9784 ft 284 kts 187°
2026-04-25 21:47 38.85081 35.86479 9303 ft 277 kts 214°
2026-04-25 21:47 38.83794 35.84695 8819 ft 274 kts 242°
2026-04-25 21:48 38.83210 35.82387 8342 ft 271 kts 255°
2026-04-25 21:48 38.82777 35.80031 7949 ft 272 kts 255°
2026-04-25 21:48 38.82341 35.77675 7582 ft 272 kts 256°
2026-04-25 21:48 38.81900 35.75323 7223 ft 270 kts 255°
2026-04-25 21:49 38.81470 35.73030 6873 ft 260 kts 255°
2026-04-25 21:49 38.81053 35.70806 6540 ft 249 kts 255°
2026-04-25 21:49 38.80662 35.68726 6203 ft 232 kts 256°
2026-04-25 21:49 38.80299 35.66797 5924 ft 212 kts 256°
2026-04-25 21:50 38.79967 35.65033 5648 ft 199 kts 256°
2026-04-25 21:50 38.79649 35.63348 5383 ft 190 kts 256°
2026-04-25 21:50 38.79346 35.61743 5153 ft 178 kts 256°
2026-04-25 21:50 38.79159 35.60751 5001 ft 167 kts 256°
2026-04-25 21:51 38.78805 35.58873 4702 ft 159 kts 257°
2026-04-25 21:51 38.78548 35.57511 4485 ft 156 kts 257°
2026-04-25 21:51 38.78294 35.56168 4296 ft 155 kts 257°
2026-04-25 21:51 38.78043 35.54831 4074 ft 153 kts 257°
2026-04-25 21:52 38.77795 35.53506 3861 ft 153 kts 257°
2026-04-25 21:52 38.77543 35.52185 3653 ft 152 kts 257°
2026-04-25 21:52 38.77298 35.50873 3481 ft 149 kts 256°
2026-04-25 21:52 38.77081 35.49736 3465 ft 110 kts 256°
2026-04-25 21:53 38.76941 35.49002 3467 ft 60 kts 256°
2026-04-25 21:53 38.76881 35.48692 3467 ft 18 kts 256°
2026-04-25 21:53 38.76841 35.48618 3468 ft 7 kts 184°
2026-04-25 21:53 38.76786 35.48632 3468 ft 9 kts 168°
2026-04-25 21:54 38.76739 35.48632 3468 ft 5 kts 208°
2026-04-25 21:54 38.76712 35.48624 3468 ft 4 kts 181°
2026-04-25 21:54 38.76676 35.48632 3468 ft 7 kts 167°
2026-04-25 21:54 38.76658 35.48638 3468 ft 0 kts 166°